Selva, Italy 16 day weather forecast

Slopes altitude range 1005 m - 2520m

Number of lifts: 83 Pistes: 175km

In some cases the lift and piste totals shown are for the ski domain (e.g. Three Valleys) rather than individual resort (e.g. Courchevel)

Overview

The 16 day weather forecast is fully updated 4 times every day.

    • Wed 26 JUN 2019
    • Wed 26
    • 19C 26C
    • Thu 27 JUN 2019
    • Thu 27
    • 20C 25C
    • Fri 28 JUN 2019
    • Fri 28
    • 15C 21C
    • Sat 29 JUN 2019
    • Sat 29
    • 14C 23C
    • Sun 30 JUN 2019
    • Sun 30
    • 15C 24C
    • Mon 01 JUL 2019
    • Mon 01
    • 18C 25C
    • Tue 02 JUL 2019
    • Tue 02
    • 15C 20C
    • Wed 03 JUL 2019
    • Wed 03
    • 12C 15C
    • Thu 04 JUL 2019
    • Thu 04
    • 12C 19C
    • Fri 05 JUL 2019
    • Fri 05
    • 14C 19C
    • Sat 06 JUL 2019
    • Sat 06
    • 8C 11C
    • Sun 07 JUL 2019
    • Sun 07
    • 8C 17C
    • Mon 08 JUL 2019
    • Mon 08
    • 14C 21C
    • Tue 09 JUL 2019
    • Tue 09
    • 15C 20C
    • Wed 10 JUL 2019
    • Wed 10
    • 14C 19C
    • Thu 11 JUL 2019
    • Thu 11
    • 14C 20C

Date:

Time Type 0°C level Temp Chill Snow Cloud Speed Gust Dir Press
3:00 4591m 9°C 9_1 0cm 0% 1mph 2mph 1025mB
6:00 4579m 9°C 9_3 0cm 0% 3mph 3mph 1026mB
9:00 4596m 19°C 19_5 0cm 0% 5mph 6mph 1025mB
12:00 4579m 26°C 26_6 0cm 0% 6mph 9mph 1024mB
15:00 4576m 26°C 26_7 0cm 0% 7mph 10mph 1023mB
18:00 4604m 26°C 26_5 0cm 0% 5mph 6mph 1024mB
21:00 4596m 13°C 13_3 0cm 0% 3mph 4mph 1025mB
0:00 4589m 12°C 12_2 0cm 0% 2mph 3mph 1026mB
3:00 4569m 11°C 11_2 0cm 0% 2mph 3mph 1024mB
6:00 4559m 11°C 11_5 0cm 0% 5mph 5mph 1024mB
9:00 4534m 20°C 20_6 0cm 0% 6mph 10mph 1022mB
12:00 4392m 25°C 25_8 0cm 0% 8mph 15mph 1021mB
15:00 4377m 26°C 26_13 0cm 1% 13mph 18mph 1020mB
18:00 4481m 26°C 26_8 0cm 2% 8mph 8mph 1020mB
21:00 4653m 13°C 13_6 0cm 15% 6mph 7mph 1022mB
0:00 4676m 11°C 11_6 0cm 7% 6mph 6mph 1022mB
3:00 4595m 10°C 10_5 0cm 13% 5mph 6mph 1022mB
6:00 4547m 10°C 10_6 0cm 14% 6mph 6mph 1021mB
9:00 4576m 15°C 15_8 0cm 30% 8mph 7mph 1020mB
12:00 4662m 21°C 21_8 0cm 15% 8mph 9mph 1018mB
15:00 4647m 21°C 21_9 0cm 25% 9mph 10mph 1018mB
18:00 4694m 21°C 21_8 0cm 23% 8mph 9mph 1019mB
21:00 4644m 9°C 9_4 0cm 0% 4mph 5mph 1021mB
0:00 4663m 7°C 7_2 0cm 0% 2mph 3mph 1021mB
3:00 4620m 6°C 6_1 0cm 0% 1mph 2mph 1021mB
6:00 4712m 6°C 6_4 0cm 0% 4mph 4mph 1020mB
9:00 4797m 14°C 14_1 0cm 0% 1mph 2mph 1019mB
12:00 4805m 23°C 23_2 0cm 0% 2mph 2mph 1018mB
15:00 4843m 24°C 24_4 0cm 0% 4mph 3mph 1017mB
18:00 4867m 24°C 24_2 0cm 0% 2mph 4mph 1019mB
21:00 4898m 11°C 11_4 0cm 7% 4mph 5mph 1021mB
0:00 4877m 11°C 11_5 0cm 39% 5mph 5mph 1020mB
3:00 4778m 12°C 12_4 0cm 50% 4mph 4mph 1020mB
6:00 4720m 12°C 12_3 0cm 40% 3mph 2mph 1020mB
9:00 4669m 15°C 15_3 0cm 0% 3mph 3mph 1019mB
12:00 4653m 24°C 24_5 0cm 2% 5mph 4mph 1018mB
15:00 4398m 25°C 25_6 0cm 17% 6mph 8mph 1018mB
18:00 4535m 25°C 25_6 0cm 9% 6mph 7mph 1019mB
21:00 4541m 12°C 12_3 0cm 0% 3mph 4mph 1021mB
0:00 4495m 10°C 10_1 0cm 0% 1mph 2mph 1021mB
3:00 4502m 9°C 9_2 0cm 0% 2mph 3mph 1020mB
6:00 4451m 9°C 9_5 0cm 0% 5mph 5mph 1019mB
9:00 4380m 18°C 18_4 0cm 0% 4mph 4mph 1018mB
12:00 4321m 25°C 25_1 0cm 6% 1mph 6mph 1017mB
15:00 4372m 24°C 24_1 0cm 89% 1mph 3mph 1016mB
18:00 4289m 24°C 24_3 0cm 94% 3mph 3mph 1019mB
21:00 4218m 10°C 10_5 0cm 100% 5mph 5mph 1020mB
0:00 4134m 10°C 10_2 0cm 100% 2mph 3mph 1019mB
3:00 4090m 8°C 8_1 0cm 100% 1mph 2mph 1018mB
6:00 4066m 8°C 8_2 0cm 97% 2mph 2mph 1018mB
9:00 4125m 15°C 15_4 0cm 47% 4mph 4mph 1017mB
12:00 4075m 20°C 20_7 0cm 65% 7mph 5mph 1017mB
15:00 4150m 20°C 20_6 0cm 100% 6mph 6mph 1017mB
18:00 4026m 20°C 20_6 0cm 100% 6mph 6mph 1018mB
21:00 4050m 10°C 10_3 0cm 100% 3mph 4mph 1019mB
0:00 4050m 8°C 8_1 0cm 87% 1mph 2mph 1019mB
3:00 4031m 8°C 8_2 0cm 94% 2mph 3mph 1019mB
6:00 4020m 7°C 7_2 0cm 97% 2mph 2mph 1019mB
9:00 4020m 12°C 12_5 0cm 100% 5mph 4mph 1019mB
12:00 3912m 15°C 15_2 0cm 100% 2mph 2mph 1019mB
15:00 3873m 13°C 13_4 0cm 100% 4mph 4mph 1019mB
18:00 4005m 14°C 14_4 0cm 100% 4mph 4mph 1019mB
21:00 4105m 7°C 7_3 0cm 98% 3mph 4mph 1020mB
0:00 4168m 6°C 6_2 0cm 98% 2mph 3mph 1019mB
3:00 4089m 5°C 5_2 0cm 100% 2mph 3mph 1018mB
6:00 3966m 5°C 5_3 0cm 74% 3mph 3mph 1018mB
9:00 3960m 12°C 12_4 0cm 23% 4mph 2mph 1017mB
12:00 3944m 19°C 19_3 0cm 45% 3mph 3mph 1016mB
15:00 4003m 19°C 19_2 0cm 84% 2mph 3mph 1016mB
18:00 4067m 19°C 19_1 0cm 88% 1mph 2mph 1017mB
21:00 4120m 9°C 9_1 0cm 89% 1mph 2mph 1018mB
0:00 4105m 8°C 8_2 0cm 94% 2mph 3mph 1018mB
3:00 4023m 6°C 6_1 0cm 54% 1mph 1mph 1018mB
6:00 3998m 6°C 6_1 0cm 31% 1mph 2mph 1017mB
9:00 4043m 14°C 14_1 0cm 16% 1mph 3mph 1017mB
12:00 4126m 19°C 19_3 0cm 36% 3mph 4mph 1016mB
15:00 4180m 20°C 20_1 0cm 70% 1mph 3mph 1015mB
18:00 4170m 20°C 20_2 0cm 71% 2mph 3mph 1017mB
21:00 4062m 11°C 11_3 0cm 100% 3mph 4mph 1019mB
0:00 4056m 9°C 9_5 0cm 100% 5mph 6mph 1019mB
Afternoon 0.791667mm 1.5625 3729m 11°C 11_10 0cm 87% 10mph 10mph 1018mB
Morning 0mm 0 3565m 3°C 3_7 0cm 49% 7mph 7mph 1025mB
Afternoon 0mm 0 3903m 17°C 17_3 0cm 0% 3mph 3mph 1020mB
Morning 0mm 0 4423m 5°C 5_2 0cm 21% 2mph 3mph 1021mB
Afternoon 0mm 0 4180m 21°C 21_3 0cm 57% 3mph 11mph 1017mB
Morning 0.125mm 0.375 4203m 9°C 9_0 0cm 100% 0mph 1mph 1019mB
Afternoon 0.3125mm 0.9375 4260m 20°C 20_5 0cm 90% 5mph 4mph 1016mB
Morning 0.125mm 0.375 4192m 9°C 9_2 0cm 100% 2mph 2mph 1018mB
Afternoon 0.916667mm 2.75 4098m 19°C 19_9 0cm 67% 9mph 7mph 1016mB
Morning 0mm 0 3950m 7°C 7_3 0cm 92% 3mph 3mph 1017mB
Afternoon 0.166667mm 0.5 4031m 20°C 20_1 0cm 16% 1mph 4mph 1012mB
Morning 0.0208333mm 0.0625 3943m 7°C 7_3 0cm 95% 3mph 3mph 1010mB

16 day outlook at a glance

Forecast issued: 6/26/2019 7:47:52 AM

Chat

Your comments and questions. In a resort? Let us know what it's like!


Characters left 250

For terms and conditions see Readers Comments on the Cookie and privacy policy page.